GW3564 Weather Reports


time (UTC)temp
C
wind
direction
speed
KPH
gust
KPH
rain 1hr
cm
rain 24hr
cm
rain mn
cm
humidity
%
barometer
mb
20260510174713 24 286 4.8 4.8 0.00 0.00 0.00 45 1017.3
20260510174211 24 341 8.0 12.9 0.00 0.00 0.00 45 1017.4
20260510173706 25 222 4.8 4.8 0.00 0.00 0.00 41 1017.5
20260510173202 24 252 4.8 4.8 0.00 0.00 0.00 42 1017.7
20260510172658 25 227 8.0 11.3 0.00 0.00 0.00 42 1017.6
20260510172154 25 247 4.8 4.8 0.00 0.00 0.00 41 1017.6
20260510171651 25 232 6.4 8.0 0.00 0.00 0.00 41 1017.7
20260510171149 25 244 4.8 4.8 0.00 0.00 0.00 41 1017.6
20260510170645 24 243 8.0 11.3 0.00 0.00 0.00 42 1017.9
20260510170141 24 267 4.8 8.0 0.00 0.00 0.00 40 1017.6
20260510165637 23 217 6.4 8.0 0.00 0.00 0.00 41 1017.7
20260510165133 23 204 1.6 1.6 0.00 0.00 0.00 50 1017.6
20260510164631 24 208 1.6 3.2 0.00 0.00 0.00 44 1017.9
20260510164127 24 264 8.0 9.7 0.00 0.00 0.00 43 1017.8
20260510163623 23 247 3.2 3.2 0.00 0.00 0.00 45 1017.9
20260510163119 23 217 3.2 3.2 0.00 0.00 0.00 46 1017.8
20260510162614 23 87 3.2 8.0 0.00 0.00 0.00 48 1017.9
20260510162110 23 186 1.6 1.6 0.00 0.00 0.00 49 1017.7
20260510161606 23 221 1.6 1.6 0.00 0.00 0.00 48 1018.1
20260510161104 23 246 4.8 4.8 0.00 0.00 0.00 47 1017.7
20260510160600 24 265 4.8 4.8 0.00 0.00 0.00 46 1017.8
20260510160100 23 278 3.2 3.2 0.00 0.00 0.00 48 1017.8
20260510155557 22 164 1.6 1.6 0.00 0.00 0.00 52 1017.8
20260510155053 22 285 6.4 8.0 0.00 0.00 0.00 51 1017.9
20260510154549 22 237 4.8 4.8 0.00 0.00 0.00 54 1018.0
20260510154044 21 82 1.6 3.2 0.00 0.00 0.00 58 1017.8
20260510153539 22 187 1.6 3.2 0.00 0.00 0.00 56 1018.1
20260510153037 22 153 1.6 3.2 0.00 0.00 0.00 57 1017.9
20260510152533 22 263 1.6 3.2 0.00 0.00 0.00 54 1017.9
20260510152030 22 177 0.0 1.6 0.00 0.00 0.00 56 1018.4
20260510151526 22 192 1.6 1.6 0.00 0.00 0.00 60 1018.2
20260510151024 22 251 1.6 3.2 0.00 0.00 0.00 57 1018.2
20260510150518 21 236 3.2 3.2 0.00 0.00 0.00 58 1018.2
20260510150015 21 269 1.6 1.6 0.00 0.00 0.00 62 1018.1
20260510145512 21 207 3.2 3.2 0.00 0.00 0.00 62 1017.9
20260510145008 21 245 3.2 3.2 0.00 0.00 0.00 60 1018.2
20260510144505 20 243 3.2 4.8 0.00 0.00 0.00 64 1018.1
20260510144001 20 156 1.6 1.6 0.00 0.00 0.00 64 1018.4
20260510143456 21 180 3.2 3.2 0.00 0.00 0.00 65 1018.1
20260510142953 20 219 1.6 3.2 0.00 0.00 0.00 64 1018.0
20260510142450 20 201 0.0 1.6 0.00 0.00 0.00 67 1018.2
20260510141947 19 240 3.2 3.2 0.00 0.00 0.00 67 1018.1
20260510141443 18 175 1.6 1.6 0.00 0.00 0.00 71 1018.4
20260510140941 18 178 3.2 3.2 0.00 0.00 0.00 69 1018.2
20260510140437 19 181 0.0 1.6 0.00 0.00 0.00 67 1018.4
20260510135936 18 177 1.6 1.6 0.00 0.00 0.00 68 1018.2
20260510135432 17 178 1.6 1.6 0.00 0.00 0.00 72 1018.6
20260510134929 17 198 1.6 1.6 0.00 0.00 0.00 73 1018.6
20260510134426 17 180 0.0 1.6 0.00 0.00 0.00 73 1018.5
20260510133922 17 178 1.6 1.6 0.00 0.00 0.00 73 1018.6
20260510133419 16 189 1.6 1.6 0.00 0.00 0.00 74 1018.4
20260510132914 15 198 0.0 1.6 0.00 0.00 0.00 75 1018.5
20260510132412 15 153 1.6 3.2 0.00 0.00 0.00 74 1018.5
20260510131909 15 178 0.0 1.6 0.00 0.00 0.00 78 1018.2
20260510131407 15 270 3.2 3.2 0.00 0.00 0.00 77 1018.5
20260510130903 15 180 0.0 0.0 0.00 0.00 0.00 79 1018.5
20260510130400 15 164 0.0 1.6 0.00 0.00 0.00 78 1018.5
20260510125857 15 173 1.6 1.6 0.00 0.00 0.00 79 1018.4
20260510125353 15 178 0.0 1.6 0.00 0.00 0.00 79 1018.7
20260510124850 15 180 0.0 1.6 0.00 0.00 0.00 78 1018.2
20260510124346 15 184 1.6 1.6 0.00 0.00 0.00 80 1018.4
20260510123842 14 168 0.0 1.6 0.00 0.00 0.00 83 1018.4
20260510123338 13 193 1.6 1.6 0.00 0.00 0.00 83 1018.5
20260510122834 13 174 0.0 1.6 0.00 0.00 0.00 84 1018.2
20260510122330 13 174 0.0 0.0 0.00 0.00 0.00 86 1018.1
20260510121827 13 179 0.0 0.0 0.00 0.00 0.00 86 1018.4
20260510121325 13 177 0.0 0.0 0.00 0.00 0.00 86 1018.0
20260510120822 12 174 0.0 0.0 0.00 0.00 0.00 88 1018.0
20260510120319 11 174 0.0 0.0 0.00 0.00 0.00 91 1017.9
20260510115814 11 173 0.0 0.0 0.00 0.00 0.00 94 1017.9
20260510115312 10 178 0.0 0.0 0.00 0.00 0.00 97 1018.0
20260510114807 10 173 0.0 0.0 0.00 0.00 0.00 99 1018.1
20260510114305 8 172 0.0 0.0 0.00 0.00 0.00 99 1018.1
20260510113800 8 174 0.0 0.0 0.00 0.00 0.00 99 1018.1
20260510113257 8 175 0.0 0.0 0.00 0.00 0.00 99 1018.0
20260510112753 8 180 0.0 0.0 0.00 0.00 0.00 99 1017.6
20260510112250 8 173 0.0 0.0 0.00 0.00 0.00 99 1017.5
20260510111746 8 174 0.0 0.0 0.00 0.00 0.00 99 1017.6
20260510111243 7 175 0.0 0.0 0.00 0.00 0.00 99 1017.6
20260510110742 6 176 0.0 0.0 0.00 0.00 0.00 99 1017.5
20260510110241 6 178 0.0 0.0 0.00 0.00 0.00 99 1017.4
20260510105741 6 176 0.0 0.0 0.00 0.00 0.00 99 1017.1
20260510105235 6 178 0.0 0.0 0.00 0.00 0.00 99 1017.0
20260510104732 6 184 0.0 0.0 0.00 0.00 0.00 99 1017.0
20260510104230 6 199 0.0 0.0 0.00 0.00 0.00 99 1016.8
20260510103726 5 181 0.0 0.0 0.00 0.00 0.00 99 1016.8
20260510103223 6 175 0.0 0.0 0.00 0.00 0.00 99 1016.5
20260510102722 5 178 0.0 0.0 0.00 0.00 0.00 99 1016.7
20260510102218 5 179 0.0 0.0 0.00 0.00 0.00 99 1016.7
20260510101716 5 179 0.0 0.0 0.00 0.00 0.00 99 1016.7
20260510101215 5 182 0.0 0.0 0.00 0.00 0.00 99 1016.5
20260510100710 5 179 0.0 0.0 0.00 0.00 0.00 99 1016.4
20260510100208 6 179 0.0 0.0 0.00 0.00 0.00 99 1016.3
20260510095703 6 179 0.0 0.0 0.00 0.00 0.00 99 1016.4
20260510095158 6 180 0.0 0.0 0.00 0.00 0.00 99 1016.2
20260510094657 6 180 0.0 0.0 0.00 0.00 0.00 99 1016.2
20260510094153 6 180 0.0 0.0 0.00 0.00 0.00 99 1016.2
20260510093649 6 179 0.0 0.0 0.00 0.00 0.00 99 1016.4
20260510093147 6 180 0.0 0.0 0.00 0.00 0.00 99 1016.1
20260510092643 6 180 0.0 0.0 0.00 0.00 0.00 99 1016.3
20260510092138 6 179 0.0 0.0 0.00 0.00 0.00 99 1016.2
20260510091635 6 181 0.0 0.0 0.00 0.00 0.00 99 1016.0
20260510091132 6 184 0.0 0.0 0.00 0.00 0.00 99 1015.8
20260510090629 6 198 0.0 0.0 0.00 0.00 0.00 99 1015.9
20260510090125 6 181 0.0 0.0 0.00 0.00 0.00 99 1016.1
20260510085620 6 179 0.0 0.0 0.00 0.00 0.00 99 1016.0
20260510085115 6 179 0.0 0.0 0.00 0.00 0.00 99 1015.8
20260510084612 6 179 0.0 0.0 0.00 0.00 0.00 99 1015.9
20260510084108 6 183 0.0 0.0 0.00 0.00 0.00 99 1015.7
20260510083605 6 178 0.0 0.0 0.00 0.00 0.00 99 1015.9
20260510083101 6 178 0.0 0.0 0.00 0.00 0.00 99 1015.9
20260510082558 6 177 0.0 0.0 0.00 0.00 0.00 99 1015.7
20260510082053 6 178 0.0 0.0 0.00 0.00 0.00 99 1015.6
20260510081548 6 178 0.0 0.0 0.00 0.00 0.00 99 1015.6
20260510081044 6 179 0.0 0.0 0.00 0.00 0.00 99 1015.6
20260510080544 6 177 0.0 0.0 0.00 0.00 0.00 99 1015.5
20260510080041 7 178 0.0 0.0 0.00 0.00 0.00 99 1015.6
20260510075538 7 178 0.0 0.0 0.00 0.00 0.00 99 1015.4
20260510075035 7 204 0.0 0.0 0.00 0.00 0.00 99 1015.5
20260510074533 7 182 0.0 0.0 0.00 0.00 0.00 99 1015.5
20260510074028 7 182 0.0 0.0 0.00 0.00 0.00 99 1015.4
20260510073524 7 182 0.0 0.0 0.00 0.00 0.00 99 1015.5
20260510073021 7 187 0.0 0.0 0.00 0.00 0.00 99 1015.6
20260510072518 7 186 0.0 0.0 0.00 0.00 0.00 99 1015.4
20260510072013 7 184 0.0 0.0 0.00 0.00 0.00 99 1015.6
20260510071509 7 181 0.0 0.0 0.00 0.00 0.00 99 1015.1
20260510071008 7 181 0.0 0.0 0.00 0.00 0.00 99 1015.3
20260510070505 7 179 0.0 0.0 0.00 0.00 0.00 99 1015.2
20260510070001 7 181 0.0 0.0 0.00 0.00 0.00 99 1015.4
20260510065458 7 181 0.0 0.0 0.00 0.00 0.00 99 1015.2
20260510064954 7 179 0.0 0.0 0.00 0.00 0.00 99 1015.0
20260510064451 7 178 0.0 0.0 0.00 0.00 0.00 99 1015.4
20260510063947 7 181 0.0 0.0 0.00 0.00 0.00 99 1015.1
20260510063443 7 181 0.0 0.0 0.00 0.00 0.00 99 1015.1
20260510062942 8 183 0.0 0.0 0.00 0.00 0.00 99 1015.3
20260510062436 7 183 0.0 0.0 0.00 0.00 0.00 99 1015.2
20260510061932 7 189 0.0 0.0 0.00 0.00 0.00 99 1015.1
20260510061429 7 183 0.0 0.0 0.00 0.00 0.00 99 1015.2
20260510060925 7 184 0.0 0.0 0.00 0.00 0.00 99 1015.3
20260510060422 7 181 0.0 0.0 0.00 0.00 0.00 98 1015.4
20260510055918 8 178 0.0 0.0 0.00 0.00 0.00 98 1015.2
20260510055414 8 181 0.0 0.0 0.00 0.00 0.00 98 1015.3
20260510054912 8 182 0.0 0.0 0.00 0.00 0.00 98 1015.2
20260510054408 8 181 0.0 0.0 0.00 0.00 0.00 98 1015.2
20260510053903 8 182 0.0 0.0 0.00 0.00 0.00 97 1015.0
20260510053359 8 182 0.0 0.0 0.00 0.00 0.00 97 1015.1
20260510052855 8 181 0.0 0.0 0.00 0.00 0.00 97 1015.2
20260510052351 8 179 0.0 0.0 0.00 0.00 0.00 97 1015.1
20260510051847 8 174 0.0 0.0 0.00 0.00 0.00 97 1015.1
20260510051344 8 182 0.0 0.0 0.00 0.00 0.00 96 1015.3
20260510050841 8 182 0.0 0.0 0.00 0.00 0.00 96 1015.3
20260510050337 8 182 0.0 0.0 0.00 0.00 0.00 96 1015.0
20260510045835 8 182 0.0 0.0 0.00 0.00 0.00 96 1015.3
20260510045331 8 182 0.0 0.0 0.00 0.00 0.00 96 1015.3
20260510044829 9 182 0.0 0.0 0.00 0.00 0.00 95 1015.3
20260510044325 9 182 0.0 0.0 0.00 0.00 0.00 94 1015.2
20260510043822 10 182 0.0 0.0 0.00 0.00 0.00 94 1015.2
20260510043318 10 182 0.0 0.0 0.00 0.00 0.00 93 1015.2
20260510042815 10 182 0.0 0.0 0.00 0.00 0.00 93 1015.0
20260510042311 10 187 0.0 0.0 0.00 0.00 0.00 93 1015.2
20260510041808 10 190 0.0 0.0 0.00 0.00 0.00 94 1015.3
20260510041305 10 183 0.0 0.0 0.00 0.00 0.00 94 1015.3
20260510040803 10 183 0.0 0.0 0.00 0.00 0.00 94 1015.2
20260510040259 10 183 0.0 0.0 0.00 0.00 0.00 93 1015.0
20260510035754 10 183 0.0 0.0 0.00 0.00 0.00 93 1015.0
20260510035250 10 183 0.0 0.0 0.00 0.00 0.00 93 1015.2
20260510034746 10 189 0.0 0.0 0.00 0.00 0.00 93 1015.0
20260510034245 10 181 0.0 0.0 0.00 0.00 0.00 93 1014.9
20260510033740 10 178 0.0 0.0 0.00 0.00 0.00 92 1015.0
20260510033238 10 178 0.0 0.0 0.00 0.00 0.00 92 1015.0
20260510032734 10 181 0.0 0.0 0.00 0.00 0.00 91 1014.7
20260510032231 10 179 0.0 0.0 0.00 0.00 0.00 91 1014.9
20260510031726 10 180 0.0 0.0 0.00 0.00 0.00 91 1015.0
20260510031222 10 171 0.0 0.0 0.00 0.00 0.00 90 1015.0
20260510030721 10 171 0.0 0.0 0.00 0.00 0.00 90 1014.9
20260510030219 10 179 0.0 0.0 0.00 0.00 0.00 90 1014.9
20260510025716 11 181 0.0 0.0 0.00 0.00 0.00 89 1014.9
20260510025213 11 181 0.0 0.0 0.00 0.00 0.00 88 1014.6
20260510024710 11 182 0.0 0.0 0.00 0.00 0.00 87 1014.6
20260510024207 11 182 0.0 0.0 0.00 0.00 0.00 87 1014.6
20260510023702 11 182 0.0 0.0 0.00 0.00 0.00 88 1014.6
20260510023159 11 181 0.0 0.0 0.00 0.00 0.00 88 1014.5
20260510022655 11 180 0.0 0.0 0.00 0.00 0.00 88 1014.4
20260510022150 11 182 0.0 0.0 0.00 0.00 0.00 86 1014.6
20260510021646 11 182 0.0 0.0 0.00 0.00 0.00 86 1014.4
20260510021143 11 182 0.0 0.0 0.00 0.00 0.00 85 1014.2
20260510020638 12 182 0.0 0.0 0.00 0.00 0.00 85 1014.2
20260510020133 12 174 0.0 0.0 0.00 0.00 0.00 84 1014.1
20260510015629 12 175 0.0 0.0 0.00 0.00 0.00 83 1014.3
20260510015126 12 175 0.0 0.0 0.00 0.00 0.00 83 1014.3
20260510014621 12 175 0.0 0.0 0.00 0.00 0.00 81 1014.1
20260510014119 12 175 0.0 0.0 0.00 0.00 0.00 81 1014.1
20260510013619 12 175 0.0 0.0 0.00 0.00 0.00 80 1013.8
20260510013115 13 175 0.0 0.0 0.00 0.00 0.00 79 1013.7
20260510012614 13 175 0.0 0.0 0.00 0.00 0.00 79 1013.5
20260510012111 13 176 0.0 0.0 0.00 0.00 0.00 79 1013.5
20260510011610 13 177 0.0 0.0 0.00 0.00 0.00 77 1013.3
20260510011106 13 178 0.0 0.0 0.00 0.00 0.00 75 1013.2
20260510010603 13 179 0.0 0.0 0.00 0.00 0.00 76 1013.0
20260510010100 13 179 0.0 0.0 0.00 0.00 0.00 75 1013.2
20260510005555 14 179 0.0 0.0 0.00 0.00 0.00 75 1013.0
20260510005053 14 181 0.0 0.0 0.00 0.00 0.00 76 1012.9
20260510004551 15 182 0.0 0.0 0.00 0.00 0.00 74 1013.0
20260510004049 15 181 0.0 0.0 0.00 0.00 0.00 73 1012.9
20260510003545 15 181 0.0 0.0 0.00 0.00 0.00 72 1012.9
20260510003041 15 181 0.0 0.0 0.00 0.00 0.00 69 1012.9
20260510002536 16 181 0.0 0.0 0.00 0.00 0.00 67 1012.8
20260510002034 16 182 0.0 0.0 0.00 0.00 0.00 67 1012.9
20260510001531 17 182 0.0 0.0 0.00 0.00 0.00 65 1012.9
20260510001029 17 183 0.0 0.0 0.00 0.00 0.00 62 1012.9
20260510000524 17 222 1.6 1.6 0.00 0.00 0.00 59 1012.7
20260510000021 17 213 0.0 1.6 0.00 0.00 0.00 60 1012.3
20260509235518 18 165 1.6 1.6 0.00 0.00 0.00 60 1012.6
20260509235015 18 262 4.8 4.8 0.00 0.00 0.00 57 1012.4
20260509234511 18 237 1.6 3.2 0.00 0.00 0.00 57 1012.4
20260509234009 19 180 3.2 3.2 0.00 0.00 0.00 56 1012.2
20260509233501 20 304 3.2 3.2 0.00 0.00 0.00 53 1012.2
20260509232957 20 183 1.6 1.6 0.00 0.00 0.00 54 1012.2
20260509232455 20 170 4.8 4.8 0.00 0.00 0.00 52 1012.1
20260509231950 20 197 1.6 1.6 0.00 0.00 0.00 53 1012.1
20260509231447 21 289 3.2 3.2 0.00 0.00 0.00 51 1012.1
20260509230945 21 312 4.8 4.8 0.00 0.00 0.00 51 1012.1
20260509230442 21 220 3.2 4.8 0.00 0.00 0.00 51 1012.2
20260509225938 21 197 0.0 1.6 0.00 0.00 0.00 51 1011.9
20260509225435 21 215 3.2 4.8 0.00 0.00 0.00 50 1012.0
20260509224931 21 248 4.8 4.8 0.00 0.00 0.00 48 1012.1
20260509224426 21 276 4.8 4.8 0.00 0.00 0.00 49 1012.1
20260509223923 22 233 4.8 4.8 0.00 0.00 0.00 47 1011.9
20260509223420 21 190 3.2 3.2 0.00 0.00 0.00 50 1012.0
20260509222918 21 271 8.0 12.9 0.00 0.00 0.00 48 1012.0
20260509222412 21 202 3.2 4.8 0.00 0.00 0.00 50 1012.0
20260509221908 21 276 4.8 4.8 0.00 0.00 0.00 50 1012.0
20260509221405 21 196 8.0 11.3 0.00 0.00 0.00 50 1012.1
20260509220901 21 271 6.4 9.7 0.00 0.00 0.00 49 1012.1
20260509220357 21 283 6.4 12.9 0.00 0.00 0.00 49 1011.9
20260509215852 20 264 4.8 4.8 0.00 0.00 0.00 52 1011.8
20260509215344 21 217 3.2 4.8 0.00 0.00 0.00 50 1011.7
20260509214841 21 195 8.0 8.0 0.00 0.00 0.00 49 1011.7
20260509214338 22 319 3.2 4.8 0.00 0.00 0.00 48 1011.7
20260509213835 22 246 4.8 8.0 0.00 0.00 0.00 47 1012.0
20260509213330 21 204 0.0 1.6 0.00 0.00 0.00 51 1011.8
20260509212828 21 240 1.6 3.2 0.00 0.00 0.00 49 1011.8
20260509212325 21 207 3.2 3.2 0.00 0.00 0.00 48 1011.5
20260509211820 21 211 3.2 3.2 0.00 0.00 0.00 48 1011.6
20260509211311 21 183 1.6 1.6 0.00 0.00 0.00 49 1011.3
20260509210808 21 265 3.2 3.2 0.00 0.00 0.00 49 1011.5
20260509210306 21 226 3.2 3.2 0.00 0.00 0.00 49 1011.3
20260509205805 21 275 0.0 3.2 0.00 0.00 0.00 54 1011.5
20260509205300 21 260 6.4 8.0 0.00 0.00 0.00 48 1011.1
20260509204756 21 223 6.4 8.0 0.00 0.00 0.00 48 1011.5
20260509204253 22 284 6.4 8.0 0.00 0.00 0.00 46 1011.1
20260509203749 21 196 1.6 3.2 0.00 0.00 0.00 51 1011.3
20260509203247 21 221 6.4 9.7 0.00 0.00 0.00 48 1011.2
20260509202743 21 195 1.6 3.2 0.00 0.00 0.00 48 1011.2
20260509202238 22 217 4.8 8.0 0.00 0.00 0.00 48 1011.2
20260509201733 21 185 0.0 1.6 0.00 0.00 0.00 51 1011.2
20260509201229 21 242 1.6 3.2 0.00 0.00 0.00 47 1011.2
20260509200726 22 270 6.4 8.0 0.00 0.00 0.00 46 1011.1
20260509200222 22 251 4.8 8.0 0.00 0.00 0.00 46 1011.2
20260509195717 21 228 4.8 8.0 0.00 0.00 0.00 48 1011.1
20260509195212 21 246 4.8 8.0 0.00 0.00 0.00 46 1011.3
20260509194707 21 234 4.8 4.8 0.00 0.00 0.00 47 1011.1
20260509194204 23 17 8.0 9.7 0.00 0.00 0.00 46 1011.3
20260509193701 22 209 1.6 1.6 0.00 0.00 0.00 46 1011.1
20260509193156 22 201 1.6 1.6 0.00 0.00 0.00 47 1011.1
20260509192652 23 258 3.2 4.8 0.00 0.00 0.00 46 1011.1
20260509192147 22 237 3.2 4.8 0.00 0.00 0.00 46 1011.0
20260509191642 22 215 1.6 1.6 0.00 0.00 0.00 48 1011.0
20260509191138 22 205 4.8 4.8 0.00 0.00 0.00 45 1011.0
20260509190634 21 292 4.8 4.8 0.00 0.00 0.00 46 1011.0
20260509190127 22 247 6.4 8.0 0.00 0.00 0.00 47 1011.1
20260509185624 22 232 3.2 3.2 0.00 0.00 0.00 46 1011.5
20260509185119 22 199 3.2 4.8 0.00 0.00 0.00 47 1011.3
20260509184613 22 208 3.2 3.2 0.00 0.00 0.00 48 1011.3
20260509184109 21 199 3.2 4.8 0.00 0.00 0.00 47 1011.3
20260509183604 22 327 8.0 11.3 0.00 0.00 0.00 49 1011.6
20260509183100 22 245 1.6 1.6 0.00 0.00 0.00 49 1011.3
20260509182557 22 331 4.8 4.8 0.00 0.00 0.00 50 1011.1
20260509182053 20 195 4.8 4.8 0.00 0.00 0.00 49 1011.3
20260509181552 20 272 3.2 3.2 0.00 0.00 0.00 49 1011.3
20260509181049 21 251 4.8 4.8 0.00 0.00 0.00 48 1011.5
20260509180544 21 211 3.2 4.8 0.00 0.00 0.00 48 1011.3
20260509180042 21 291 6.4 9.7 0.00 0.00 0.00 47 1011.7
20260509175537 21 175 6.4 8.0 0.00 0.00 0.00 48 1011.5